• Em Portugal
  • Lista de países
  • Para 7 dias
  • Temperatura da água
  • Mapas de satélite
  • Mapa do tempo
  • Widgets de tempo
  • user-avatar
    Iniciar Sessão

    Previsão horária em Galata

    Hoje, 25 Setembro, Terça-feira

    Tempo Temperatura Precipitação Vento Pressão Humidade
    00:00 +13°C° 0.5 mm 10 m/s 757 mmHg 70%
    01:00 +13°C° 0.5 mm 9 m/s 758 mmHg 74%
    02:00 +12°C° 0.5 mm 8 m/s 759 mmHg 78%
    03:00 +12°C° 0.6 mm 7 m/s 759 mmHg 77%
    04:00 +11°C° 0.6 mm 7 m/s 760 mmHg 76%
    05:00 +11°C° 0.6 mm 6 m/s 760 mmHg 75%
    06:00 +11°C° 0.2 mm 6 m/s 761 mmHg 73%
    07:00 +12°C° 0.2 mm 5 m/s 761 mmHg 71%
    08:00 +13°C° 0.2 mm 5 m/s 762 mmHg 70%
    09:00 +14°C° 0 mm 5 m/s 762 mmHg 62%
    10:00 +15°C° 0 mm 5 m/s 762 mmHg 55%
    11:00 +16°C° 0 mm 5 m/s 763 mmHg 48%
    12:00 +16°C° 0 mm 6 m/s 763 mmHg 45%
    13:00 +16°C° 0 mm 6 m/s 763 mmHg 43%
    14:00 +16°C° 0 mm 6 m/s 763 mmHg 40%
    15:00 +16°C° 0 mm 6 m/s 763 mmHg 40%
    16:00 +15°C° 0 mm 5 m/s 763 mmHg 40%
    17:00 +15°C° 0 mm 5 m/s 763 mmHg 40%
    18:00 +14°C° 0 mm 5 m/s 763 mmHg 41%
    19:00 +13°C° 0 mm 5 m/s 764 mmHg 42%
    20:00 +13°C° 0 mm 4 m/s 765 mmHg 44%
    21:00 +12°C° 0 mm 5 m/s 765 mmHg 44%
    22:00 +11°C° 0 mm 6 m/s 765 mmHg 45%
    23:00 +10°C° 0 mm 6 m/s 766 mmHg 45%

    Amanhã, 26 Setembro, Quarta-feira

    Tempo Temperatura Precipitação Vento Pressão Humidade
    00:00 +10°C° 0 mm 7 m/s 766 mmHg 46%
    01:00 +9°C° 0 mm 7 m/s 766 mmHg 47%
    02:00 +9°C° 0 mm 7 m/s 767 mmHg 49%
    03:00 +8°C° 0 mm 7 m/s 767 mmHg 52%
    04:00 +7°C° 0 mm 8 m/s 767 mmHg 55%
    05:00 +6°C° 0 mm 8 m/s 767 mmHg 59%
    06:00 +7°C° 0 mm 8 m/s 767 mmHg 57%
    07:00 +8°C° 0 mm 9 m/s 767 mmHg 55%
    08:00 +8°C° 0 mm 9 m/s 768 mmHg 53%
    09:00 +11°C° 0 mm 9 m/s 768 mmHg 48%
    10:00 +12°C° 0 mm 9 m/s 768 mmHg 43%
    11:00 +14°C° 0 mm 10 m/s 768 mmHg 38%
    12:00 +15°C° 0 mm 9 m/s 768 mmHg 37%
    13:00 +16°C° 0 mm 9 m/s 768 mmHg 35%
    14:00 +16°C° 0 mm 9 m/s 767 mmHg 34%
    15:00 +16°C° 0 mm 9 m/s 767 mmHg 34%
    16:00 +15°C° 0 mm 9 m/s 767 mmHg 34%
    17:00 +15°C° 0 mm 8 m/s 767 mmHg 34%
    18:00 +13°C° 0 mm 8 m/s 767 mmHg 37%
    19:00 +12°C° 0 mm 8 m/s 767 mmHg 39%
    20:00 +10°C° 0 mm 8 m/s 768 mmHg 42%
    21:00 +10°C° 0 mm 8 m/s 768 mmHg 43%
    22:00 +9°C° 0 mm 8 m/s 768 mmHg 43%
    23:00 +9°C° 0 mm 8 m/s 768 mmHg 44%

    Depois de amanhã, 27 Setembro, Quinta-feira

    Tempo Temperatura Precipitação Vento Pressão Humidade
    00:00 +7°C° 0 mm 8 m/s 768 mmHg 45%
    01:00 +7°C° 0 mm 8 m/s 768 mmHg 46%
    02:00 +6°C° 0 mm 8 m/s 767 mmHg 47%
    03:00 +6°C° 0 mm 7 m/s 767 mmHg 48%
    04:00 +6°C° 0 mm 7 m/s 767 mmHg 49%
    05:00 +5°C° 0 mm 7 m/s 767 mmHg 50%
    06:00 +6°C° 0 mm 8 m/s 767 mmHg 48%
    07:00 +7°C° 0 mm 8 m/s 767 mmHg 46%
    08:00 +9°C° 0 mm 8 m/s 767 mmHg 43%
    09:00 +11°C° 0 mm 8 m/s 767 mmHg 42%
    10:00 +13°C° 0 mm 8 m/s 766 mmHg 40%
    11:00 +15°C° 0 mm 8 m/s 766 mmHg 39%
    12:00 +16°C° 0 mm 7 m/s 766 mmHg 38%
    13:00 +17°C° 0 mm 7 m/s 765 mmHg 37%
    14:00 +18°C° 0 mm 7 m/s 765 mmHg 37%
    15:00 +17°C° 0 mm 7 m/s 764 mmHg 38%
    16:00 +17°C° 0 mm 7 m/s 764 mmHg 39%
    17:00 +16°C° 0 mm 7 m/s 764 mmHg 40%
    18:00 +15°C° 0 mm 6 m/s 764 mmHg 45%
    19:00 +13°C° 0 mm 6 m/s 764 mmHg 50%
    20:00 +12°C° 0 mm 5 m/s 764 mmHg 56%
    21:00 +12°C° 0 mm 5 m/s 764 mmHg 58%
    22:00 +10°C° 0 mm 5 m/s 763 mmHg 60%
    23:00 +10°C° 0 mm 5 m/s 763 mmHg 63%

    28 Setembro, Sexta-feira

    Tempo Temperatura Precipitação Vento Pressão Humidade
    00:00 +10°C° 0 mm 5 m/s 763 mmHg 62%
    01:00 +10°C° 0 mm 5 m/s 763 mmHg 62%
    02:00 +9°C° 0 mm 5 m/s 762 mmHg 61%
    03:00 +9°C° 0 mm 5 m/s 762 mmHg 60%
    04:00 +9°C° 0 mm 5 m/s 762 mmHg 59%
    05:00 +9°C° 0 mm 5 m/s 761 mmHg 57%
    06:00 +10°C° 0 mm 5 m/s 761 mmHg 53%
    07:00 +12°C° 0 mm 5 m/s 761 mmHg 48%
    08:00 +13°C° 0 mm 5 m/s 761 mmHg 44%
    09:00 +15°C° 0 mm 5 m/s 761 mmHg 43%
    10:00 +17°C° 0 mm 5 m/s 761 mmHg 42%
    11:00 +20°C° 0 mm 5 m/s 761 mmHg 41%
    12:00 +21°C° 0 mm 5 m/s 760 mmHg 40%
    13:00 +21°C° 0 mm 5 m/s 760 mmHg 39%
    14:00 +22°C° 0 mm 5 m/s 759 mmHg 38%
    15:00 +21°C° 0 mm 4 m/s 759 mmHg 42%
    16:00 +21°C° 0 mm 4 m/s 758 mmHg 45%
    17:00 +20°C° 0 mm 4 m/s 758 mmHg 48%
    18:00 +19°C° 0 mm 4 m/s 758 mmHg 54%
    19:00 +17°C° 0 mm 3 m/s 758 mmHg 61%
    20:00 +16°C° 0 mm 3 m/s 758 mmHg 67%
    21:00 +16°C° 0 mm 3 m/s 758 mmHg 69%
    22:00 +14°C° 0 mm 3 m/s 757 mmHg 70%
    23:00 +15°C° 0 mm 2 m/s 757 mmHg 72%

    29 Setembro, Sábado

    Tempo Temperatura Precipitação Vento Pressão Humidade
    00:00 +15°C° 0 mm 2 m/s 757 mmHg 73%
    01:00 +14°C° 0 mm 2 m/s 757 mmHg 74%
    02:00 +14°C° 0 mm 2 m/s 757 mmHg 74%
    03:00 +14°C° 0 mm 2 m/s 756 mmHg 74%
    04:00 +14°C° 0 mm 2 m/s 756 mmHg 75%
    05:00 +14°C° 0 mm 2 m/s 756 mmHg 75%
    06:00 +15°C° 0.1 mm 2 m/s 756 mmHg 71%
    07:00 +16°C° 0.1 mm 2 m/s 756 mmHg 68%
    08:00 +17°C° 0.1 mm 2 m/s 756 mmHg 64%
    09:00 +18°C° 0.1 mm 2 m/s 756 mmHg 59%
    10:00 +20°C° 0.1 mm 2 m/s 756 mmHg 54%
    11:00 +23°C° 0.1 mm 2 m/s 756 mmHg 48%
    12:00 +23°C° 0 mm 2 m/s 756 mmHg 47%
    13:00 +23°C° 0 mm 2 m/s 756 mmHg 45%
    14:00 +24°C° 0 mm 2 m/s 756 mmHg 44%
    15:00 +23°C° 0 mm 2 m/s 756 mmHg 45%
    16:00 +23°C° 0 mm 2 m/s 755 mmHg 46%
    17:00 +22°C° 0 mm 3 m/s 755 mmHg 47%
    18:00 +21°C° 0 mm 3 m/s 756 mmHg 53%
    19:00 +19°C° 0 mm 2 m/s 756 mmHg 60%
    20:00 +18°C° 0 mm 2 m/s 757 mmHg 66%
    21:00 +18°C° 0 mm 2 m/s 757 mmHg 69%
    22:00 +17°C° 0 mm 2 m/s 757 mmHg 71%
    23:00 +17°C° 0 mm 2 m/s 757 mmHg 74%

    30 Setembro, Domingo

    Tempo Temperatura Precipitação Vento Pressão Humidade
    00:00 +16°C° 0 mm 3 m/s 758 mmHg 75%
    01:00 +15°C° 0 mm 4 m/s 758 mmHg 77%
    02:00 +14°C° 0 mm 5 m/s 758 mmHg 78%
    03:00 +14°C° 0 mm 5 m/s 758 mmHg 82%
    04:00 +13°C° 0 mm 5 m/s 758 mmHg 86%
    05:00 +13°C° 0 mm 6 m/s 758 mmHg 90%
    06:00 +13°C° 0 mm 6 m/s 759 mmHg 87%
    07:00 +14°C° 0 mm 6 m/s 759 mmHg 84%
    08:00 +15°C° 0 mm 7 m/s 759 mmHg 81%
    09:00 +16°C° 0.1 mm 7 m/s 759 mmHg 75%
    10:00 +18°C° 0.1 mm 7 m/s 759 mmHg 68%
    11:00 +20°C° 0.1 mm 7 m/s 760 mmHg 61%
    12:00 +21°C° 0.1 mm 7 m/s 759 mmHg 58%
    13:00 +22°C° 0.1 mm 7 m/s 759 mmHg 54%
    14:00 +22°C° 0.1 mm 7 m/s 759 mmHg 51%
    15:00 +22°C° 0 mm 7 m/s 759 mmHg 52%
    16:00 +21°C° 0 mm 7 m/s 759 mmHg 53%
    17:00 +21°C° 0 mm 6 m/s 759 mmHg 54%
    18:00 +19°C° 0 mm 6 m/s 759 mmHg 60%
    19:00 +17°C° 0 mm 5 m/s 760 mmHg 66%
    20:00 +16°C° 0 mm 5 m/s 760 mmHg 72%
    21:00 +15°C° 0 mm 5 m/s 760 mmHg 74%
    22:00 +15°C° 0 mm 4 m/s 760 mmHg 77%
    23:00 +14°C° 0 mm 4 m/s 760 mmHg 79%
    Mostrar mais